Location: Sternwarte_Laufen
(47.9344°N, 12.9346°E)
Time: 23:31:20
(UTC+02:00)

ISS - Pass Details

Date: 21 July 2018
Orbit: 402 x 408 km, 51.6° (Epoch: 16 July)

Event Time Altitude Azimuth Distance (km) Brightness Sun altitude
Rises 02:58:33 0° 292° (WNW) 2,331 0.0 -17.7°
Reaches altitude 10° 03:00:38 10° 294° (WNW) 1,469 -1.0 -17.6°
Maximum altitude 03:03:56 84° 23° (NNE) 414 -3.8 -17.3°
Drops below altitude 10° 03:07:13 10° 111° (ESE) 1,466 -0.9 -17.1°
Sets 03:09:18 0° 112° (ESE) 2,324 0.1 -16.9°
